www.pogodaiklimat.ru

Погода и климат >> Архив погоды >> Китай >> Tianjin


АРХИВ ПОГОДЫ в Tianjin

Время (UTC), дата Ветер
(напр.,м/с)
 
Видим.   Явления Облачность Т
(С)
Тd
(С)
f
(%)
Тe
(С)
Тes
(С)
Комфортность P
(гПа)
Po
(гПа)
Тmin
(С)
Tmax
(С)
R
(мм)
R24
(мм)
S
(см)
21 15.09 С 1 30 км н/о +17.1 +11.2 68 +18 +18 по сезону 1019.1 1019.0
00 16.09 С 3 30 км 9/9 1500 м
[]
+18.9 +7.4 47 +20 +20 тепло 1020.1 1020.0
03 16.09 С 3 30 км 8/8 1500 м
[]
+22.8 +5.7 33 +23 +25 комфорт 1020.1 1020.0
06 16.09 СЗ 5 30 км 8/8
[]
+25.3 +4.4 26 +25 +26 комфорт 1018.2 1018.0 +16.6
09 16.09 С 3 30 км 6/6
[]
+25.2 +2.0 22 +24 +24 комфорт 1017.7 1018.0
12 16.09 Ю 1 30 км ясно +18.8 +6.3 44 +20 +20 по сезону 1018.9 1019.0
18 16.09 ЮЗ 1 12 км ?/? +14.5 +10.5 77 +15 +15 прохладно 1019.6 1020.0 +26.0
21 16.09 З 1 10 км н/о +13.3 +10.7 84 +13 +13 холодно 1019.7 1020.0
00 17.09 СЗ 1 12 км ясно +17.5 +12.6 73 +19 +22 по сезону 1020.6 1021.0
03 17.09 СЗ 1 30 км 9/9
[]
+25.6 +7.7 32 +26 +27 жарко 1020.0 1020.0
06 17.09 С 3 30 км 8/8
[]
+28.0 +3.7 21 +26 +28 жарко 1018.2 1018.0 +12.8
09 17.09 СЗ 1 30 км 9/9 1000 м
[]
+25.7 +8.7 34 +26 +26 жарко 1018.1 1018.0
12 17.09 С 2 25 км в посл. час ливневой дождь 9/9 1000 м
[]
+22.5 +11.0 48 +25 +25 комфорт 1018.9 1019.0 0.0
18 17.09 штиль 0 8000 м ?/? +19.0 +16.0 83 +20 +20 тепло 1018.3 1018.0 +28.0 0.2
21 17.09 Ю 1 6000 м дымка н/о +18.3 +16.5 89 +20 +20 тепло 1018.0 1018.0
00 18.09 ЮЗ 2 9000 м 10/10 1000 м
[]
+19.5 +14.5 73 +22 +22 комфорт 1018.8 1019.0 0.1
03 18.09 З 3 25 км {дождь} 9/9
[]
+23.1 +11.8 49 +26 +27 жарко 1018.0 1018.0
06 18.09 ЮЗ 3 24 км слабый дождь 10/10 1000 м
[]
+21.9 +14.3 62 +25 +25 комфорт 1016.8 1017.0 +18.0 0.1
09 18.09 З 1 24 км {дождь} 10/10
[]
+22.9 +13.1 54 +26 +26 жарко 1015.6 1016.0
12 18.09 Ю 5 22 км {дождь} 10/10
[]
+20.8 +12.8 60 +23 +23 комфорт 1015.5 1016.0
18 18.09 Ю 2 2400 м дымка ?/? +18.3 +17.1 93 +19 +19 тепло 1015.4 1015.0 +24.5
21 18.09 штиль 0 2400 м дымка н/о +18.2 +17.2 94 +19 +19 по сезону 1014.6 1015.0
00 19.09 Ю 1 3900 м слабый дождь 10/10
[]
+19.1 +17.4 90 +22 +22 комфорт 1014.6 1015.0 0.0
03 19.09 С 1 4300 м в посл. час дождь 10/10
[]
+20.8 +17.2 80 +26 +26 душно 1014.6 1015.0
06 19.09 С 1 7000 м дымка {дождь} 10/10
[]
+23.1 +16.2 65 +28 +28 душно 1012.7 1013.0 +18.1 0.2
09 19.09 ЮЗ 1 3900 м слабый дождь 10/10
[]
+21.0 +18.4 85 +26 +26 душно 1012.0 1012.0
12 19.09 Ю 2 2000 м в посл. час дождь 10/10
[]
+19.0 +17.8 93 +21 +21 комфорт 1012.6 1013.0 2
18 19.09 С 1 7000 м дымка ?/? +18.6 +16.2 86 +21 +21 комфорт 1012.2 1012.0 +23.5
21 19.09 С 2 3300 м дымка н/о +17.6 +16.3 92 +18 +18 по сезону 1011.8 1012.0
00 20.09 СЗ 1 н/о дымка 3/3
[]
+20.1 +17.1 83 +24 +26 комфорт 1012.6 1013.0
03 20.09 ЮВ 1 24 км 10/10
[]
+22.1 +16.8 72 +26 +26 душно 1013.3 1013.0
06 20.09 З 1 25 км 9/9 1000 м
[]
+24.0 +17.0 65 +28 +29 душно 1011.4 1011.0 +17.6
09 20.09 Ю 3 16 км 9/9
[]
+23.1 +17.6 71 +28 +29 душно 1010.2 1010.0
12 20.09 Ю 3 6000 м дымка 5/5
[]
+20.1 +18.1 88 +24 +24 комфорт 1011.1 1011.0
18 20.09 Ю 1 2600 м дымка ?/? +16.6 +15.5 93 +17 +17 по сезону 1010.7 1011.0 +24.5
21 20.09 С 1 1900 м дымка н/о +15.5 +14.7 95 +16 +16 по сезону 1010.9 1011.0
00 21.09 С 3 12 км ясно +18.9 +10.5 58 +20 +22 тепло 1012.0 1012.0
03 21.09 С 4 30 км ясно +25.3 0.0 19 +24 +32 комфорт 1011.7 1012.0
06 21.09 З 7 30 км ясно +27.1 +0.8 18 +25 +28 комфорт 1010.4 1010.0 +15.2
09 21.09 С 2 30 км 1/1 1000 м
[]
+25.5 +3.5 24 +25 +26 комфорт 1010.5 1011.0
12 21.09 С 2 30 км ясно +20.4 +1.3 28 +21 +21 комфорт 1013.2 1013.0
18 21.09 З 1 30 км ?/? +14.3 +4.0 50 +15 +15 по сезону 1015.4 1015.0 +27.3
21 21.09 штиль 0 30 км н/о +12.1 +6.2 67 +12 +12 холодно 1015.8 1016.0
00 22.09 С 1 20 км ясно +17.1 +8.3 56 +18 +21 по сезону 1017.1 1017.0
03 22.09 С 2 30 км ясно +23.0 +3.0 27 +23 +34 комфорт 1016.6 1017.0
06 22.09 З 2 30 км ясно +24.9 -0.3 19 +23 +33 комфорт 1014.0 1014.0 +11.3
09 22.09 С 3 30 км ясно +24.0 +1.6 23 +23 +24 комфорт 1013.9 1014.0
12 22.09 СВ 1 30 км ясно +18.9 +2.3 33 +20 +20 по сезону 1015.9 1016.0
18 22.09 СЗ 1 30 км ?/? +14.2 +3.4 48 +15 +15 по сезону 1017.7 1018.0 +25.7

 

Местоположение метеостанции Tianjin (Китай): широта 39.10 долгота 117.16 высота над уровнем моря 5 м.

В архиве по умолчанию представлена погода в Tianjin за последнюю неделю. Архивные данные за месяц целиком и за предыдущие месяцы, начиная с января 2011 года, Вы можете получить, выбрав интересующий диапазон дат из раскрывающегося списка и нажав кнопку "Ввод!".


*Определитесь, кто Вы:
робот инопланетянин человек

Внимание! Время в таблицах - всемирное. Для получения местного времени необходимо прибавить поправку, которая в Tianjin равна 8 ч.

Смотрите также архив погоды в соседних городах и на ближайших метеорологических станциях:

Погода в Tangshan (Китай) (106 км)
Погода в Beijing (Китай) (119 км)
Погода в Potou (Китай) (125 км)
Погода в Baoding (Китай) (141 км)
Погода в Leting (Китай) (154 км)
Погода в Huimin (Китай) (181 км)
Погода в Huailai (Китай) (203 км)
Погода в Lingxian (Китай) (204 км)
Погода в Qinglong (Китай) (211 км)
Погода в Chengde (Китай) (220 км)

Пояснения к столбцам:

Ветер - указаны скорость ветра в м/с - средняя за 10 мин, порывы в срок и между сроками (в фигурных скобках) и направление, откуда дует ветер: С - северный, СВ - северо-восточный, В - восточный, ЮВ - юго-восточный, Ю - южный, ЮЗ - юго-западный, З - западный, СЗ - северо-западный.
Видимость - горизонтальная дальность видимости в метрах или километрах. При видимости от 1 до 10 км при отсутствии осадков обычно наблюдается дымка, при ухудшении видимости до 1 км и менее - туман. В сухую погоду видимость может ухудшаться дымом, пылью или мглою.
Явления - указаны атмосферные явления, наблюдавшиеся в срок или в последний час перед сроком; фигурными скобками обозначены явления, наблюдавшиеся между сроками (за 1-3 часа до срока); квадратными скобками обозначены град или гололедные отложения с указанием их диаметра в мм.
Облачность - указаны через наклонную черту общая и нижняя облачность в баллах и высота нижней границы облаков в метрах; квадратными скобками обозначены формы облаков: Ci - перистые, Cs - перисто-слоистые, Cc - перисто-кучевые, Ac - высококучевые, As - высокослоистые, Sc - слоисто-кучевые, Ns - слоисто-дождевые, Cu - кучевые, Cb - кучево-дождевые. Подробнее классификацию облаков см. в Атласе облаков (PDF).
T - Температура воздуха - температура, измеренная на высоте 2 м над землей.
Td - Температура точки росы - температура, при понижении до которой содержащийся в воздухе водяной пар достигнет насыщения.
f - Относительная влажность воздуха - влажноcть воздуха, измеренная на высоте 2 м над землей.
Te - Эффективная температура - температура, которую ощущает одетый по сезону человек в тени. Характеристика душности погоды. При расчете учитывается влияние влажности воздуха и скорости ветра на теплоощущения человека.
Tes - Эффективная температура на солнце - температура, которую ощущает человек, с поправкой на солнечный нагрев. Характеристика знойности погоды. Зависит от высоты солнца над горизонтом, облачности и скорости ветра. Ночью, в пасмурную погоду, а также при ветре 12 м/с и более поправка равна нулю.
P - Атмосферное давление - приведенное к уровню моря атмосферное давление.
Po - Атмосферное давление - измеренное на уровне метеостанции атмосферное давление.
Tmin - Минимальная температура - минимум температуры воздуха на высоте 2 м над землей.
Tmax - Максимальная температура - максимум температуры воздуха на высоте 2 м над землей.
R - Количество осадков - Количество выпавших осадков за период времени, мм. При наведении курсора мыши на число - период времени, за который выпало указанное количество осадков.
R24 - Количество осадков - Количество выпавших осадков за 24 часа, мм.
S - Снежный покров - Высота снежного покрова, см. При наведении курсора мыши на число - состояние снежного покрова и степень покрытия местности в баллах.